Tracking 19706 objects as of 16-Jun-2019
HD Live streaming from Space Station
objects crossing your sky now

SL-14 DEB

Track SL-14 DEB now!
10-day predictions


NORAD ID: 35521
Int'l Code: 1987-068CQ
Perigee: 937.6 km
Apogee: 953.2 km
Inclination: 82.6 °
Period: 103.8 minutes
Semi major axis: 7316 km
RCS: 0.0087 m2 (small)
Launch date: August 18, 1987
Source: Commonwealth of Independent States (former USSR) (CIS)
Launch site: PLESETSK MISSILE AND SPACE COMPLEX (PKMTR)

Note: This is SATELLITE DEBRIS
aabbcc
Your satellite tracking list
Your tracking list is empty




NASA's NSSDC Master Catalog

Two Line Element Set (TLE):
1 35521U 87068CQ  19156.32179491  .00000090  00000-0  64028-4 0  9996
2 35521  82.5559 160.9284 0010658  31.9863  29.7476 13.87260237743707
Source of the keplerian elements: AFSPC